Location: Bush Observatory
(40.2653°N, 94.3194°W)
Time: 08:59:58
(UTC-05:00)

Daily predictions for brighter satellites

Satellite Brightness Start Highest point End
(mag) Time Altitude Azimuth Time Altitude Azimuth Time Altitude Azimuth
Cosmos 1850 Rocket 4.3 20:22:58 10° N 20:28:11 51° ENE 20:33:18 10° SE
Cosmos 839 Rocket 4.3 20:22:12 10° SW 20:28:27 74° WNW 20:34:45 10° NNE
Cosmos 1655 Rocket 4.1 20:25:28 10° S 20:31:45 82° E 20:38:07 10° N
COSMOS 2428 4.4 20:30:04 10° ESE 20:32:13 12° E 20:34:22 10° ENE
Meteor 2-11 Rocket 4.5 20:30:52 10° N 20:36:59 89° E 20:43:03 10° S
Meteor 1-19 Rocket 4.3 20:32:11 10° N 20:38:02 71° ENE 20:43:47 10° SSE
Resurs 1-3 3.8 20:33:59 10° SSE 20:38:14 54° ENE 20:42:32 10° N
Cosmos 614 Rocket 4.2 20:36:34 10° NNW 20:41:42 77° WSW 20:46:50 10° SSE
NOSS 2-3 (C) 3.9 20:37:11 10° SSW 20:41:50 87° ESE 20:47:14 10° NE
Cosmos 1140 Rocket 4.1 20:40:06 10° NNW 20:45:16 61° WSW 20:50:25 10° S
Cosmos 1025 Rocket 4.3 20:44:21 10° NNE 20:47:45 22° ENE 20:50:36 12° ESE
Cosmos 1607 4.2 20:41:33 10° NNW 20:47:59 64° NE 20:54:23 10° SE
Lacrosse 5 rocket 3.8 20:46:53 10° W 20:49:08 16° WSW 20:51:28 10° SSW
Cosmos 1300 Rocket 3.6 20:45:11 10° S 20:49:22 55° E 20:53:35 10° NNE
Cosmos 1536 2.9 20:46:21 10° S 20:50:19 54° E 20:54:18 10° NNE
USA 186 1.9 20:47:18 10° SSE 20:50:37 65° ENE 20:53:57 10° N
Okean 1 Rocket 3.5 20:48:28 10° SSE 20:52:31 39° E 20:56:36 10° NNE
CZ-2D R/B 3.4 20:49:15 10° S 20:53:06 78° WSW 20:56:58 10° NNW
Cosmos 1939 Rocket 3.4 20:51:36 10° SE 20:55:13 37° ENE 20:58:51 10° N
USA 238 DEB 4.5 20:48:47 10° NNW 20:55:23 40° NE 21:01:04 14° ESE
USA 238 4.5 20:48:53 10° NNW 20:55:29 40° NE 21:01:10 14° ESE
Tiangong 1 1.3 20:53:29 10° W 20:56:12 48° SSW 20:58:00 18° SE
Spot 2 Rocket 3.5 20:51:38 10° SSE 20:56:44 81° ENE 21:01:50 10° NNW
Meteor 2-4 Rocket 3.7 20:51:20 10° N 20:56:57 72° E 21:02:41 10° SSE
Helios 1A 3.9 21:01:08 16° ESE 21:03:49 31° ENE 21:07:35 10° N
ATLAS 3B R/B 3.0 20:58:37 10° NNW 21:05:08 48° NE 21:09:58 17° ESE
SL-8 R/B 4.3 21:00:57 10° NW 21:05:36 48° NNE 21:09:13 16° E
Cosmos 1818 4.4 21:02:11 10° SSE 21:06:35 26° ESE 21:11:01 10° NE
ERS-1 Rocket 4.2 21:06:57 17° ESE 21:09:29 25° ENE 21:13:30 10° NNE
YAOGAN 6 3.1 21:10:08 21° SE 21:12:01 39° ENE 21:15:19 10° N
Okean 1-7 Rocket 4.1 21:09:56 10° N 21:14:14 42° ENE 21:16:59 20° SE
USA 267 3.7 21:10:53 10° SSE 21:17:13 57° SW 21:23:41 10° NW
BREEZE-M DEB (TANK) 3.4 21:15:44 10° W 21:18:51 30° NNW 21:20:43 10° NE
Cosmos 2266 Rocket 3.9 21:12:54 10° S 21:18:56 87° E 21:25:01 10° N
Resurs 01 Rocket 2.6 21:14:58 10° S 21:19:16 48° W 21:23:36 10° NNW
Abrixas 2.4 21:17:17 10° SW 21:19:46 43° SE 21:19:46 43° SE
Meteor 1-29 4.0 21:18:11 10° NE 21:20:46 25° E 21:20:46 25° E
BREEZE-M DEB (TANK) 3.2 21:20:18 10° WSW 21:23:15 63° NNW 21:31:52 10° ENE
Envisat 3.3 21:21:09 10° S 21:26:12 68° WSW 21:31:16 10° NNW
Cosmos 2263 Rocket 2.7 21:22:58 10° NNW 21:28:34 58° WSW 21:34:05 10° S
SPOT 5 4.2 21:31:51 20° E 21:32:39 21° ENE 21:36:06 10° NNE
Lacrosse 5 3.0 21:29:34 10° WSW 21:34:27 46° NW 21:39:21 10° NE
BREEZE-M DEB (TANK) 4.5 21:30:32 10° WNW 21:34:31 47° SSW 21:45:34 17° SSE
Cosmos 1844 Rocket 3.5 21:29:26 10° N 21:34:39 35° ENE 21:36:49 26° E
Cosmos 2315 Rocket 3.9 21:28:41 10° N 21:34:58 73° E 21:39:59 17° SSE
Cosmos 2322 Rocket 4.0 21:30:27 10° WSW 21:35:34 34° WNW 21:40:43 10° N
Nadezhda 2 Rocket 4.4 21:30:08 10° S 21:36:14 71° E 21:42:28 10° NNE
Cosmos 2278 Rocket 4.0 21:32:51 10° NNE 21:36:17 16° NE 21:38:10 14° ENE
Atlas Centaur 2 4.1 21:34:31 10° WSW 21:41:15 27° SSW 21:45:01 19° SSE
Helios 1B rocket 2.3 21:37:50 10° NNE 21:41:56 70° ESE 21:44:31 22° S
Cosmos 1515 3.6 21:38:16 10° N 21:42:05 65° E 21:43:01 46° SE
Spot 1 4.4 21:40:52 27° SSE 21:43:40 73° ENE 21:48:40 10° N
Cosmos 1892 Rocket 4.0 21:41:09 10° N 21:45:21 42° ENE 21:45:55 39° E
Cosmos 2237 4.1 21:41:33 10° SSW 21:47:13 80° ESE 21:52:57 10° NNE
H-2A R/B 3.1 21:46:54 25° E 21:47:32 26° ENE 21:51:37 10° NNE
Cosmos 1302 Rocket 3.9 21:42:22 10° S 21:47:35 64° ESE 21:52:48 10° NNE
ATLAS 2AS CENTAUR R/B 3.7 21:40:47 10° SW 21:48:23 58° NW 21:56:25 10° NNE
SL-16 R/B 4.4 21:44:41 10° WSW 21:49:25 27° NW 21:54:11 10° N
Cosmos 2219 Rocket 2.7 21:50:02 35° ESE 21:50:11 35° ESE 21:55:16 10° NE
Cosmos 1745 Rocket 4.5 21:50:53 33° ESE 21:52:08 37° E 21:57:43 10° NNE
Cosmos 1486 Rocket 4.0 21:49:23 10° NNW 21:54:36 61° ENE 21:56:04 43° SE
Cosmos 1500 3.1 21:54:32 50° S 21:55:30 83° E 21:59:23 10° N
SAR-Lupe-4 3.5 21:57:26 65° ENE 21:57:26 65° ENE 22:00:56 10° N
Cosmos 1544 Rocket 3.7 21:57:19 50° E 21:57:26 50° E 22:01:45 10° NNE
NOSS 3-4 (A) 3.7 21:56:26 27° SSE 21:59:15 42° ESE 22:05:13 10° NE
NOSS 3-4 (C) 3.8 21:57:10 31° SSE 21:59:21 42° ESE 22:05:19 10° NE
Delta 2 Rocket 3.8 21:55:49 10° WSW 21:59:34 45° S 21:59:34 45° S
Abrixas rocket 3.3 21:57:04 10° NW 22:00:06 37° NNE 22:00:06 37° NNE
Cosmos 405 2.9 22:01:07 78° NE 22:01:07 78° NE 22:04:32 10° N
SeaSat 1 3.2 21:56:10 10° NNE 22:00:58 54° WNW 22:05:46 10° SW
Cosmos 2322 4.2 21:56:58 10° SW 22:02:33 60° WNW 22:08:10 10° NNE
Okean 2 4.0 21:59:56 10° NNW 22:03:56 54° W 22:05:31 32° SSW
Terra 3.7 22:04:46 16° ENE 22:04:46 16° ENE 22:07:16 10° NNE
Cosmos 2360 Rocket 3.3 22:01:17 10° SW 22:06:40 45° WNW 22:12:04 10° NNE
Cosmos 1975 2.6 22:09:20 85° E 22:09:20 85° E 22:13:21 10° N
Cosmos 1455 Rocket 3.1 22:09:49 58° ENE 22:09:49 58° ENE 22:13:56 10° NNE
CZ-4B DEB 4.2 22:14:32 32° WNW 22:14:32 32° WNW 22:16:31 10° NNW
SAR-Lupe-1 4.4 22:14:38 62° NNW 22:14:38 62° NNW 22:17:41 10° NNW
COSMOS 2428 2.7 22:09:53 10° SSW 22:15:38 85° WNW 22:21:24 10° NNE
Cosmos 1844 3.7 22:14:17 10° NNW 22:19:56 62° ENE 22:20:44 56° ESE
MetOp-A 4.2 22:24:20 50° S 22:25:43 74° WSW 22:31:05 10° NNW
Meteor 1-12 Rocket 4.2 22:25:13 37° SSW 22:27:32 81° W 22:33:13 10° N
Cosmos 2333 Rocket 2.3 22:29:06 55° ENE 22:29:06 55° ENE 22:33:59 10° NNE
Cosmos 724 4.2 22:23:38 10° NNW 22:29:30 70° ENE 22:30:09 64° E
BREEZE M DEB (TANK) 2.8 22:26:08 10° WSW 22:32:14 60° WNW 22:32:14 60° WNW
Cosmos 2333 4.5 22:28:26 10° SSW 22:34:02 66° WNW 22:39:39 10° NNE
Cosmos 1354 Rocket 4.0 22:28:48 10° NNW 22:34:09 71° ENE 22:34:09 71° ENE
Cosmos 1437 Rocket 4.1 22:36:50 34° N 22:36:50 34° N 22:39:09 10° N
Cosmos 2237 Rocket 3.3 22:42:11 31° NE 22:42:11 31° NE 22:45:16 10° NE
Nadezhda 1 Rocket 3.9 22:35:36 10° N 22:41:59 81° E 22:42:45 69° SSE
NOSS 3-2 (A) 3.9 22:35:32 10° NW 22:43:10 89° WSW 22:45:10 56° SSE
USA 238 DEB 4.4 22:39:43 10° NW 22:46:27 47° WSW 22:48:31 38° SSW
USA 238 4.4 22:39:49 10° NW 22:46:34 48° WSW 22:48:36 38° SSW
Cosmos 1980 4.4 22:48:45 41° NE 22:48:45 41° NE 22:52:33 10° NNE
ERS-1 Rocket 4.0 22:46:58 34° SW 22:48:02 38° W 22:52:42 10° NNW
SPOT 1/Viking Rocket 3.5 22:49:27 80° NNW 22:49:27 80° NNW 22:54:25 10° NNW
Nimbus 7 Rocket 4.3 22:45:06 10° NNE 22:50:48 77° E 22:50:48 77° E
SL-08 RB Rocket 4.4 22:53:48 52° WNW 22:53:48 52° WNW 22:57:41 10° NNW
Cosmos 1503 Rocket 4.1 22:48:35 10° NNW 22:53:41 74° WNW 22:53:41 74° WNW
ARGOS 3.7 22:54:02 47° WSW 22:54:39 49° W 22:59:52 10° NNW
ATLAS 3B R/B 3.7 22:49:46 10° NW 22:55:31 32° WSW 22:57:14 28° SW
H-2A R/B 4.2 22:57:37 19° NNE 22:57:37 19° NNE 22:59:16 10° NNE
BREEZE-M DEB 4.2 22:53:35 10° WNW 22:58:04 39° NNW 22:58:04 39° NNW
Cosmos 1709 Rocket 4.2 23:00:37 55° NE 23:00:37 55° NE 23:05:48 10° NNE
ATLAS CENTAUR R/B 4.1 23:00:31 10° N 23:00:51 11° NNE 23:00:51 11° NNE
Cosmos 2181 Rocket 4.4 23:00:27 10° N 23:05:56 51° NE 23:05:56 51° NE
SPOT 5 4.0 23:11:06 38° W 23:11:06 38° W 23:14:51 10° NNW
COSMOS 2455 3.9 23:12:37 10° NNW 23:17:33 34° NE 23:17:33 34° NE
Cosmos 1844 Rocket 3.9 23:13:27 10° NW 23:18:26 32° WSW 23:18:29 32° WSW
Cosmos 2278 Rocket 2.6 23:15:24 10° NNW 23:20:01 60° NNW 23:20:01 60° NNW
NOSS 0 Rocket 4.2 23:22:04 64° W 23:22:24 65° WNW 23:28:37 10° NNE
NOSS 3-2 (C) 4.0 23:16:03 10° NW 23:23:38 68° WSW 23:24:12 66° SW
H-2A R/B 3.3 23:27:33 33° WNW 23:27:33 33° WNW 23:31:20 10° NNW
Cosmos 2219 Rocket 3.7 23:31:38 24° WSW 23:34:05 33° WNW 23:39:11 10° N
Terra 3.5 23:43:40 31° NW 23:43:40 31° NW 23:46:16 10° NNW
CENTAUR R/B 3.1 23:35:42 10° NNW 23:43:39 73° NE 23:43:45 73° ENE
ATLAS CENTAUR R/B 4.2 23:35:09 10° NW 23:46:22 36° NNE 23:47:41 33° NE
SL-16 R/B 3.9 23:53:30 26° NNE 23:53:30 26° NNE 23:55:53 10° NNE
